Home > Weather > Saint-Pierre > Past weeks

Flag for Réunion (French) Weather for the Past 2 Weeks in Saint-Pierre, Réunion (French)

Now
86 °F

Partly sunny.


Feels Like: 89 °F
Forecast: 72 / 83 °F
Wind: 8 mph from Northwest

Location: Saint Airport-Pierre

Current Time: Apr 30, 2016 at 3:26:35 PM

Latest Report: Apr 30, 2016 at 3:00 PM


Visibility: N/A

Pressure: 29.89 "Hg

Humidity: 55%

Dew Point: 68 °F

Location of Saint-PierreLocation

Historic Weather in Saint-Pierre — Graph

°F

Saint-Pierre Temperature Yesterday

Maximum temperature yesterday: 84 °F (at 11:00 AM)
Minimum temperature yesterday: 72 °F (at 5:30 AM)
Average temperature yesterday: 77 °F

High & Low Weather Summary for the Past Weeks

 TemperatureHumidityPressure
High88 °F (Apr 17, 1:30 PM)94% (Apr 22, 5:30 AM)30.07 "Hg (Apr 22, 5:30 AM)
Low70 °F (Apr 18, 6:30 AM)34% (Apr 20, 8:00 AM)29.86 "Hg (Apr 20, 3:30 PM)
Average78 °F70%29.95 "Hg
* Reported Apr 15 2:00 PM — Apr 30 2:00 PM, Saint-Pierre, Weather by CustomWeather, © 2016

Note: Actual official high and low records may vary slightly from our data, if they occured in-between our weather recording intervals... More about our weather records

Advertising

Saint-Pierre Weather History for the Previous 24 Hours

Scroll right to see more
 ConditionsComfort  
Time TempWeatherWind HumidityBarometerVisibility
2:00 PM
Sat, Apr 30
86 °FScattered clouds.8 mph55%29.89 "HgN/A
1:30 PM86 °FWarm.8 mph55%29.92 "HgN/A
1:00 PM86 °FClear.8 mph55%29.92 "HgN/A
12:30 PM86 °FWarm.9 mph59%29.92 "HgN/A
12:00 PM86 °FClear.8 mph62%29.92 "HgN/A
11:30 AM84 °FClear.6 mph62%29.92 "HgN/A
11:00 AM84 °FClear.6 mph62%29.92 "HgN/A
10:30 AM84 °FClear.6 mph62%29.95 "HgN/A
10:00 AM82 °FClear.5 mph62%29.95 "HgN/A
9:30 AM82 °FClear.6 mph62%29.95 "HgN/A
9:00 AM82 °FClear.3 mph62%29.95 "HgN/A
8:30 AM81 °FClear.3 mph58%29.92 "HgN/A
8:00 AM77 °FClear.6 mph65%29.92 "HgN/A
7:00 AM73 °FClear.7 mph69%29.92 "HgN/A
6:30 AM73 °FPassing clouds.8 mph69%29.92 "HgN/A
5:30 AM73 °FPassing clouds.8 mph74%29.89 "HgN/A
5:00 AM73 °FPassing clouds.7 mph74%29.89 "HgN/A
4:30 AM73 °FPassing clouds.7 mph74%29.89 "HgN/A
3:30 AM73 °FClear.7 mph74%29.89 "HgN/A
3:00 AM73 °FPassing clouds.8 mph74%29.89 "HgN/A
2:30 AM73 °FPassing clouds.7 mph74%29.89 "HgN/A
2:00 AM73 °FPassing clouds.7 mph74%29.92 "HgN/A
1:30 AM73 °FPassing clouds.7 mph74%29.92 "HgN/A
1:00 AM75 °FPassing clouds.8 mph69%29.92 "HgN/A
12:30 AM75 °FPassing clouds.6 mph69%29.92 "HgN/A
12:00 AM75 °FClear.7 mph69%29.92 "HgN/A
11:30 PM
Fri, Apr 29
73 °FPassing clouds.7 mph78%29.95 "HgN/A
11:00 PM73 °FClear.5 mph78%29.92 "HgN/A
10:30 PM75 °FClear.8 mph74%29.92 "HgN/A
10:00 PM75 °FClear.8 mph78%29.95 "HgN/A
9:30 PM75 °FClear.7 mph78%29.95 "HgN/A
9:00 PM75 °FPassing clouds.6 mph78%29.92 "HgN/A
8:30 PM75 °FPassing clouds.6 mph78%29.95 "HgN/A
8:00 PM75 °FClear.6 mph83%29.92 "HgN/A
7:30 PM75 °FClear.6 mph83%29.92 "HgN/A
7:00 PM77 °FClear.6 mph79%29.92 "HgN/A
6:30 PM79 °FClear.1 mph74%29.92 "HgN/A
6:00 PM79 °FClear.5 mph74%29.89 "HgN/A
5:30 PM81 °FClear.7 mph74%29.89 "HgN/A
5:00 PM81 °FClear.10 mph74%29.86 "HgN/A
4:30 PM82 °FClear.10 mph70%29.86 "HgN/A
4:00 PM82 °FPassing clouds.9 mph66%29.86 "HgN/A
3:30 PM81 °FScattered clouds.7 mph70%29.86 "HgN/A
3:00 PM81 °FOvercast.13 mph70%29.86 "HgN/A
Weather by CustomWeather, © 2016

See weather overviewHow to use our weather pages